FENGYUN 1C DEB, 31201

Orbit data source: Space-Track

FENGYUN 1C DEB, 31201 is space debris in SSO originally from a launch on Mon, 10 May 1999 UTC launched from the Taiyaun Space Center, China (TSC). Fengyun 1C debris stems from the Chinese weather satellite Fengyun-1C, which was intentionally destroyed by a Chinese anti-satellite missile in 2007. This event dramatically increased the amount of space debris, with thousands of trackable fragments posing hazards to satellites and human spaceflight. The Fengyun 1C debris cloud has become a focal point in discussions about space sustainability and the need for international regulations to prevent the creation of new debris.

Loading next visibility...
Identifier
31201, 1999-025BKF
Orbit
SSO
Country
Flag of CNCN / PRC
Related business
Manufacturer
Unknown
Mission
Spacecraft
Bus & Motor
Unknown
Mass
Unknown
Launch date (UTC)
1999-05-10 (27 years ago)
Launch vehicle
Unknown
Launch site
Taiyaun Space Center, China (TSC)
Object type
Payload
Rocket body
Debris
Shape & HBR
Unknown shape, 0.1 m
Radar Cross Section
Small (<0.1 m²)

Expand to show TLE details & history
Last TLE update: 21 hours ago

TLE from 21 hours ago
0 FENGYUN 1C DEB
1 31201U 99025BKF 26208.10581097  .00001963  00000-0  61591-3 0  9995
2 31201  98.9798  83.6943 0141635  47.4249 108.5240 14.36173431  4964
Epoch: 2026-07-27T02:32Z
TLE epoch observation values (Epoch: 2026-07-27T02:32:22.067Z)
Latitude
22.24578°
Longitude
-75.50555°
Altitude
807.347 km
Speed
7.434 km/s
True Right ascension
17h 49m 31s
True Declination
22° 07' 35"
Sunlit
Object was in full shadow at epoch
Visualization orbit readout
Latitude
Unknown
Longitude
Unknown
Altitude
Unknown
Speed
Unknown
Apparent Right ascension
Unknown
Apparent Declination
Unknown
Sunlit
N/A
Visualization observer readout
Local Sidereal Time
12:37:14
Azimuth
Unknown
Elevation
Unknown
Doppler factor
Unknown
Orbital elements
Apogee altitude
869.538 km
Perigee altitude
667.1 km
Semi-major axis
7,146.456 km
Eccentricity
0.01416
Inclination
98.9798°
RAAN
83.6943°
Arg. of periapsis
47.4249°
True anomaly
110.05414°
Mean anomaly
108.524°
Eccentric anomaly
109.28995°
Mean motion
3.59259 °/min
Orbital period
100.21 mins
BSTAR
0.00061591
Loading maneuver chart data...
Computing Atmospheric mass density...
Loading historical data...
Loading historical data...
Loading historical data...
Loading historical data...
Loading historical data...
Loading historical data...
Loading historical data...

Documentation

Showing up to 5 results
|